This demonstration page uses our WeatherBlox Daily Observations layout. Learn more.

Left ArrowRight Arrow

38.83388, -104.82136

Hourly Observations for January 4, 2021

Temp ( °F °C ) Dew Point ( °F °C ) Humidity (%) Winds ( mph kmh ) Pressure ( in mb ) Visibility ( mi km ) Precip ( " mm )
12:58 am 00:58 Clear 35 1.8 12 -10.9 39 39 Calm 29.69 1005 10 16 0.00 0.00
1:58 am 01:58 Clear 35 1.5 10 -12.2 36 36 WNW 5 7 29.74 1007 10 16 0.00 0.00
2:58 am 02:58 Clear 33 0.8 10 -12.3 37 37 W 3 6 29.78 1008 10 16 0.00 0.00
3:58 am 03:58 Clear 34 0.9 9 -12.6 36 36 Calm 29.80 1009 10 16 0.00 0.00
4:58 am 04:58 Clear 32 0 10 -12.5 39 39 Calm 29.83 1010 10 16 0.00 0.00
5:58 am 05:58 Clear 33 0.7 9 -12.6 37 37 S 8 13 29.84 1011 10 16 0.00 0.00
6:58 am 06:58 Clear 35 1.5 8 -13.6 32 32 SSW 5 7 29.85 1011 10 16 0.00 0.00
7:58 am 07:58 Sunny 36 2 8 -13.4 31 31 SSE 3 6 29.88 1012 10 16 0.00 0.00
8:58 am 08:58 Sunny 40 4.7 9 -13 27 27 SSE 10 17 29.87 1012 10 16 0.00 0.00
9:58 am 09:58 Mostly Cloudy 38 3.5 10 -12.3 31 31 SSE 9 15 29.89 1012 10 16 0.00 0.00
10:58 am 10:58 Sunny 41 5.1 16 -8.9 36 36 SE 7 11 29.87 1012 10 16 0.00 0.00
11:58 am 11:58 Sunny 42 5.7 18 -7.7 38 38 ESE 6 9 29.81 1010 10 16 0.00 0.00
12:58 pm 12:58 Sunny 45 7.2 17 -8.2 33 33 SE 3 6 29.81 1010 10 16 0.00 0.00
1:58 pm 13:58 Sunny 44 6.5 12 -11.2 27 27 SE 15 24 29.79 1009 10 16 0.00 0.00
2:58 pm 14:58 Sunny 43 6 11 -11.6 27 27 SSE 15 24 29.81 1009 10 16 0.00 0.00
3:58 pm 15:58 Sunny 41 5.1 11 -11.8 29 29 Calm 29.81 1009 10 16 0.00 0.00
4:58 pm 16:58 Clear 36 2.2 13 -10.7 38 38 Calm 29.85 1011 10 16 0.00 0.00
5:58 pm 17:58 Clear 38 3.5 10 -12.2 31 31 S 13 20 29.83 1010 10 16 0.00 0.00
6:58 pm 18:58 Clear 36 2.4 11 -11.7 35 35 S 12 19 29.82 1010 10 16 0.00 0.00
7:58 pm 19:58 Clear 36 2 11 -11.5 36 36 S 7 11 29.78 1009 10 16 0.00 0.00
8:58 pm 20:58 Clear 32 0 13 -10.7 45 45 Calm 29.75 1008 10 16 0.00 0.00
9:58 pm 21:58 Clear 32 -0.2 13 -10.7 45 45 NNW 7 11 29.73 1007 10 16 0.00 0.00
10:58 pm 22:58 Clear 33 0.3 12 -11.3 42 42 Calm 29.70 1006 10 16 0.00 0.00
11:58 pm 23:58 Clear 37 2.8 14 -10 39 39 SSW 6 9 29.62 1003 10 16 0.00 0.00

Powered by AerisWeather